This is the latest recevied weather packets stored in our database for station/object KY4GW. If no packets are shown the sender has not sent any weather packets the latest 10 day(s).
| Time | Temp. | Humidity | Pressure | Rain* | Wind** | Luminosity | Snow |
|---|---|---|---|---|---|---|---|
| 1778081212 | 12.22° C | 76% | 1015.1 hPa | 0 mm | - | 704 W/m² | - |
| 1778080909 | 12.78° C | 74% | 1015.1 hPa | 0 mm | - | 666 W/m² | - |
| 1778080609 | 12.78° C | 76% | 1015.1 hPa | 0 mm | - | 570 W/m² | - |
| 1778080304 | 11.67° C | 74% | 1015.5 hPa | 0 mm | - | 729 W/m² | - |
| 1778080001 | 11.67° C | 78% | 1015.5 hPa | 0 mm | - | 741 W/m² | - |
| 1778079698 | 11.67° C | 77% | 1015.1 hPa | 0 mm | - | 664 W/m² | - |
| 1778079395 | 11.11° C | 78% | 1015.1 hPa | 0 mm | - | 699 W/m² | - |
| 1778079092 | 10.56° C | 81% | 1015.1 hPa | 0 mm | - | 427 W/m² | - |
| 1778078790 | 11.67° C | 80% | 1015.1 hPa | 0 mm | - | 235 W/m² | - |
| 1778078486 | 11.67° C | 77% | 1015.1 hPa | 0 mm | - | 412 W/m² | - |
| 1778078184 | 11.11° C | 80% | 1015.1 hPa | 0 mm | - | 512 W/m² | - |
| 1778077882 | 10.56° C | 82% | 1015.1 hPa | 0 mm | - | 587 W/m² | - |
| 1778077580 | 10.56° C | 81% | 1014.8 hPa | 0 mm | - | 502 W/m² | - |
| 1778077278 | 10° C | 84% | 1014.8 hPa | 0 mm | - | 363 W/m² | - |
| 1778076975 | 10° C | 84% | 1014.8 hPa | 0 mm | - | 251 W/m² | - |
| 1778076673 | 10° C | 85% | 1014.4 hPa | 0 mm | - | 193 W/m² | - |
| 1778076370 | 9.44° C | 84% | 1014.4 hPa | 0 mm | - | 186 W/m² | - |
| 1778076067 | 9.44° C | 86% | 1014.4 hPa | 0 mm | - | 176 W/m² | - |
| 1778075764 | 9.44° C | 86% | 1014.8 hPa | 0 mm | - | 172 W/m² | - |
| 1778075460 | 9.44° C | 87% | 1014.8 hPa | 0 mm | - | 170 W/m² | - |
| 1778075157 | 9.44° C | 87% | 1014.8 hPa | 0 mm | - | 171 W/m² | - |
| 1778074853 | 9.44° C | 87% | 1014.1 hPa | 0 mm | - | 164 W/m² | - |
| 1778074550 | 8.89° C | 88% | 1014.1 hPa | 0 mm | - | 150 W/m² | - |
| 1778074247 | 8.89° C | 89% | 1014.1 hPa | 0 mm | - | 148 W/m² | - |
| 1778073945 | 8.89° C | 89% | 1014.1 hPa | 0 mm | - | 121 W/m² | - |
* Rain latest hour (hover to see other rain measurements)
** Current wind speed in m/s (hover to see current wind gust speed)